• In Hungary
  • List of Countries
  • For 7 days
  • Water Temperature
  • Satellite Maps
  • Weather Map
  • News
  • Weather Widgets
  • user-avatar
    Login

    Hourly Weather Medvedickoe

    Today, 26 September, Wednesday

    Time Temperature Precipitation Wind Pressure Humidity
    00:00 +4°C° 0 mm 4 mps 749 mmHg 85%
    01:00 +3°C° 0 mm 4 mps 750 mmHg 86%
    02:00 +3°C° 0 mm 4 mps 751 mmHg 86%
    03:00 +3°C° 0 mm 4 mps 751 mmHg 86%
    04:00 +1°C° 0 mm 4 mps 752 mmHg 87%
    05:00 +1°C° 0 mm 4 mps 752 mmHg 88%
    06:00 +2°C° 0 mm 3 mps 753 mmHg 88%
    07:00 +1°C° 0 mm 4 mps 753 mmHg 84%
    08:00 +3°C° 0 mm 4 mps 754 mmHg 80%
    09:00 +4°C° 0 mm 4 mps 754 mmHg 76%
    10:00 +6°C° 0 mm 4 mps 754 mmHg 70%
    11:00 +7°C° 0 mm 4 mps 754 mmHg 64%
    12:00 +10°C° 0 mm 4 mps 754 mmHg 58%
    13:00 +9°C° 0 mm 5 mps 754 mmHg 59%
    14:00 +10°C° 0 mm 5 mps 753 mmHg 59%
    15:00 +10°C° 0 mm 5 mps 753 mmHg 59%
    16:00 +10°C° 0 mm 5 mps 752 mmHg 62%
    17:00 +9°C° 0 mm 5 mps 752 mmHg 66%
    18:00 +8°C° 0 mm 4 mps 751 mmHg 69%
    19:00 +8°C° 0 mm 5 mps 750 mmHg 68%
    20:00 +8°C° 0 mm 6 mps 749 mmHg 67%
    21:00 +6°C° 0 mm 7 mps 748 mmHg 66%
    22:00 +6°C° 0.8 mm 7 mps 747 mmHg 71%
    23:00 +6°C° 0.8 mm 8 mps 746 mmHg 77%

    Tomorrow, 27 September, Thursday

    Time Temperature Precipitation Wind Pressure Humidity
    00:00 +5°C° 0.8 mm 9 mps 744 mmHg 82%
    01:00 +5°C° 1.7 mm 9 mps 743 mmHg 83%
    02:00 +5°C° 1.7 mm 9 mps 741 mmHg 85%
    03:00 +3°C° 1.7 mm 9 mps 740 mmHg 86%
    04:00 +5°C° 1.2 mm 8 mps 739 mmHg 87%
    05:00 +5°C° 1.2 mm 8 mps 738 mmHg 88%
    06:00 +6°C° 1.2 mm 7 mps 738 mmHg 89%
    07:00 +6°C° 0.5 mm 7 mps 738 mmHg 85%
    08:00 +7°C° 0.5 mm 6 mps 738 mmHg 82%
    09:00 +8°C° 0.5 mm 6 mps 738 mmHg 79%
    10:00 +8°C° 0.3 mm 7 mps 738 mmHg 75%
    11:00 +8°C° 0.3 mm 7 mps 738 mmHg 71%
    12:00 +9°C° 0.3 mm 8 mps 739 mmHg 67%
    13:00 +9°C° 0.2 mm 8 mps 739 mmHg 66%
    14:00 +9°C° 0.2 mm 8 mps 739 mmHg 65%
    15:00 +9°C° 0.2 mm 8 mps 740 mmHg 63%
    16:00 +8°C° 0.1 mm 7 mps 740 mmHg 66%
    17:00 +7°C° 0.1 mm 6 mps 741 mmHg 69%
    18:00 +7°C° 0.1 mm 5 mps 741 mmHg 71%
    19:00 +6°C° 0 mm 5 mps 741 mmHg 73%
    20:00 +6°C° 0 mm 5 mps 742 mmHg 74%
    21:00 +5°C° 0 mm 5 mps 742 mmHg 76%
    22:00 +5°C° 0 mm 5 mps 742 mmHg 76%
    23:00 +5°C° 0 mm 5 mps 742 mmHg 77%

    Day after tomorrow, 28 September, Friday

    Time Temperature Precipitation Wind Pressure Humidity
    00:00 +5°C° 0 mm 5 mps 742 mmHg 77%
    01:00 +5°C° 0 mm 5 mps 742 mmHg 77%
    02:00 +6°C° 0 mm 5 mps 742 mmHg 76%
    03:00 +6°C° 0 mm 5 mps 742 mmHg 76%
    04:00 +5°C° 1.1 mm 4 mps 740 mmHg 81%
    05:00 +5°C° 1.1 mm 4 mps 739 mmHg 86%
    06:00 +5°C° 1.1 mm 4 mps 738 mmHg 91%
    07:00 +6°C° 3.4 mm 4 mps 737 mmHg 91%
    08:00 +7°C° 3.4 mm 4 mps 736 mmHg 92%
    09:00 +8°C° 3.4 mm 5 mps 735 mmHg 93%
    10:00 +8°C° 1.5 mm 5 mps 735 mmHg 90%
    11:00 +9°C° 1.5 mm 5 mps 735 mmHg 87%
    12:00 +9°C° 1.5 mm 6 mps 735 mmHg 85%
    13:00 +8°C° 0.1 mm 6 mps 736 mmHg 83%
    14:00 +7°C° 0.1 mm 6 mps 737 mmHg 81%
    15:00 +7°C° 0.1 mm 6 mps 739 mmHg 79%
    16:00 +6°C° 0 mm 5 mps 740 mmHg 78%
    17:00 +5°C° 0 mm 5 mps 741 mmHg 76%
    18:00 +5°C° 0 mm 4 mps 742 mmHg 75%
    19:00 +4°C° 0 mm 4 mps 743 mmHg 75%
    20:00 +4°C° 0 mm 4 mps 744 mmHg 76%
    21:00 +3°C° 0 mm 4 mps 744 mmHg 77%
    22:00 +3°C° 0 mm 4 mps 745 mmHg 78%
    23:00 +1°C° 0 mm 4 mps 745 mmHg 78%

    29 September, Saturday

    Time Temperature Precipitation Wind Pressure Humidity
    00:00 +1°C° 0 mm 4 mps 746 mmHg 79%
    01:00 +1°C° 0 mm 4 mps 746 mmHg 79%
    02:00 +1°C° 0 mm 4 mps 747 mmHg 79%
    03:00 0°C° 0 mm 4 mps 748 mmHg 80%
    04:00 0°C° 0 mm 4 mps 748 mmHg 79%
    05:00 0°C° 0 mm 4 mps 749 mmHg 79%
    06:00 0°C° 0 mm 4 mps 749 mmHg 79%
    07:00 0°C° 0 mm 5 mps 750 mmHg 74%
    08:00 +1°C° 0 mm 5 mps 750 mmHg 69%
    09:00 +2°C° 0 mm 6 mps 751 mmHg 65%
    10:00 +3°C° 0 mm 5 mps 751 mmHg 61%
    11:00 +5°C° 0 mm 5 mps 752 mmHg 57%
    12:00 +6°C° 0 mm 5 mps 753 mmHg 53%
    13:00 +6°C° 0 mm 5 mps 753 mmHg 52%
    14:00 +7°C° 0 mm 5 mps 753 mmHg 51%
    15:00 +7°C° 0 mm 5 mps 753 mmHg 50%
    16:00 +6°C° 0 mm 4 mps 754 mmHg 55%
    17:00 +5°C° 0 mm 3 mps 754 mmHg 60%
    18:00 +5°C° 0 mm 2 mps 754 mmHg 65%
    19:00 +4°C° 0 mm 2 mps 755 mmHg 68%
    20:00 +3°C° 0 mm 2 mps 755 mmHg 71%
    21:00 +2°C° 0 mm 2 mps 756 mmHg 75%
    22:00 +2°C° 0 mm 2 mps 756 mmHg 76%
    23:00 +1°C° 0 mm 2 mps 756 mmHg 77%

    30 September, Sunday

    Time Temperature Precipitation Wind Pressure Humidity
    00:00 +1°C° 0 mm 2 mps 756 mmHg 78%
    01:00 -1°C° 0 mm 2 mps 757 mmHg 79%
    02:00 -1°C° 0 mm 2 mps 757 mmHg 80%
    03:00 -1°C° 0 mm 2 mps 757 mmHg 81%
    04:00 -1°C° 0 mm 2 mps 757 mmHg 82%
    05:00 -1°C° 0 mm 2 mps 757 mmHg 82%
    06:00 -2°C° 0 mm 2 mps 757 mmHg 83%
    07:00 +1°C° 0 mm 2 mps 757 mmHg 77%
    08:00 +1°C° 0 mm 3 mps 757 mmHg 72%
    09:00 +2°C° 0 mm 3 mps 757 mmHg 66%
    10:00 +4°C° 0 mm 3 mps 757 mmHg 60%
    11:00 +5°C° 0 mm 4 mps 757 mmHg 55%
    12:00 +7°C° 0 mm 4 mps 757 mmHg 50%
    13:00 +7°C° 0 mm 4 mps 756 mmHg 50%
    14:00 +7°C° 0 mm 5 mps 756 mmHg 50%
    15:00 +8°C° 0 mm 5 mps 755 mmHg 50%
    16:00 +7°C° 0 mm 4 mps 755 mmHg 56%
    17:00 +6°C° 0 mm 4 mps 755 mmHg 62%
    18:00 +5°C° 0 mm 3 mps 754 mmHg 67%
    19:00 +5°C° 0 mm 3 mps 754 mmHg 69%
    20:00 +5°C° 0 mm 4 mps 754 mmHg 71%
    21:00 +5°C° 0 mm 4 mps 754 mmHg 72%
    22:00 +5°C° 0 mm 4 mps 754 mmHg 72%
    23:00 +5°C° 0 mm 4 mps 754 mmHg 71%

    1 October, Monday

    Time Temperature Precipitation Wind Pressure Humidity
    00:00 +5°C° 0 mm 4 mps 753 mmHg 71%
    01:00 +4°C° 0 mm 4 mps 753 mmHg 72%
    02:00 +4°C° 0 mm 4 mps 753 mmHg 73%
    03:00 +4°C° 0 mm 4 mps 753 mmHg 74%
    04:00 +4°C° 0 mm 4 mps 753 mmHg 76%
    05:00 +3°C° 0 mm 4 mps 753 mmHg 78%
    06:00 +3°C° 0 mm 4 mps 752 mmHg 80%
    07:00 +4°C° 0 mm 4 mps 752 mmHg 78%
    08:00 +5°C° 0 mm 4 mps 752 mmHg 76%
    09:00 +5°C° 0 mm 4 mps 752 mmHg 74%
    10:00 +6°C° 0 mm 5 mps 752 mmHg 72%
    11:00 +7°C° 0 mm 5 mps 752 mmHg 70%
    12:00 +8°C° 0 mm 5 mps 752 mmHg 68%
    13:00 +9°C° 0 mm 5 mps 752 mmHg 65%
    14:00 +9°C° 0 mm 5 mps 752 mmHg 63%
    15:00 +10°C° 0 mm 5 mps 752 mmHg 61%
    16:00 +11°C° 0 mm 4 mps 752 mmHg 65%
    17:00 +10°C° 0 mm 4 mps 752 mmHg 69%
    18:00 +9°C° 0 mm 3 mps 752 mmHg 73%
    19:00 +8°C° 0 mm 3 mps 752 mmHg 75%
    20:00 +8°C° 0 mm 3 mps 752 mmHg 78%
    21:00 +7°C° 0 mm 3 mps 752 mmHg 80%
    22:00 +7°C° 0 mm 3 mps 752 mmHg 82%
    23:00 +5°C° 0 mm 3 mps 753 mmHg 84%
    Show more